Regional Weather Roundup
Issued by NWS

Home | Current Version | Previous Version | Text Only | Print | Product List | Glossary On
Versions: 1 2 3 4 5 6 7 8 9 10 11 12 13 14 15 16 17 18 19 20 21 22 23 24 25 26 27 28 29 30 31 32 33 34 35 36 37 38 39 40 41 42 43 44 45 46 47 48 49 50
000
ASUS44 KFWD 280715
RWRTX
NORTH TEXAS HOURLY WEATHER ROUNDUP
NATIONAL WEATHER SERVICE FORT WORTH TX
200 AM CDT THU AUG 28 2014

NOTE: "FAIR" INDICATES FEW OR NO CLOUDS BELOW 12,000 FEET WITH NO
SIGNIFICANT WEATHER AND/OR OBSTRUCTIONS TO VISIBILITY.

TXZ118-119-280800-
DALLAS/FORT WORTH METROPLEX

CITY           SKY/WX    TMP DP  RH WIND       PRES   REMARKS
DFW AIRPORT    CLEAR     78  61  55 SE3       29.98F
DALLAS LOVE    CLEAR     80  60  50 E6        29.98F
FTW MEACHAM    CLEAR     80  59  48 SE7       29.98F
DAL-EXECUTIVE  CLEAR     75  59  57 CALM      29.99S
FTW-ALLIANCE   CLEAR     74  60  61 CALM      29.98F
FTW-NAS-JRB    CLEAR     83  56  39 SE3       30.03S
FTW-SPINKS     CLEAR     71  62  73 CALM      30.00F
ARLINGTON      CLEAR     72  62  71 CALM      29.99F
GRAND PRAIRIE  CLEAR     80  56  44 SE3       30.00F
ADDISON        CLEAR     82  59  45 SE6       30.00F
MESQUITE       CLEAR     72  61  67 CALM      29.99S
LANCASTER      CLEAR     69  57  65 CALM      30.00S
$$

TXZ091>094-102>105-117-120-121-131>134-280800-
NORTH CENTRAL TEXAS

CITY           SKY/WX    TMP DP  RH WIND       PRES   REMARKS
SHRMAN/DENISON CLEAR     79  62  56 SE7       30.01S
GAINESVILLE    CLEAR     74  64  71 CALM      30.02F
BOWIE          CLEAR     74  65  73 CALM      30.00F
BRIDGEPORT     CLEAR     78  59  52 S5        30.01F
DECATUR        CLEAR     76  61  59 SE5       30.00F
DENTON         CLEAR     74  65  73 CALM      29.99S
MCKINNEY       CLEAR     71  65  81 NE5       29.99F
GREENVILLE     CLEAR     72  63  73 CALM      30.00S
ROCKWALL       CLEAR     76  64  67 SE6       29.98S
TERRELL        CLEAR     75  62  64 N3        29.99S
WAXAHACHIE     CLEAR     72  58  62 CALM      30.00F
CLEBURNE       CLEAR     77  63  61 SE3       30.01F
GRANBURY       CLEAR     79  60  51 SE3       30.00F
$$

TXZ083>090-098>101-113>116-127>130-139>142-154-155-280800-
WESTERN NORTH TEXAS

CITY           SKY/WX    TMP DP  RH WIND       PRES   REMARKS
WICHITA FALLS  CLEAR     78  64  61 S9        29.98F
WF-KICKAPOO    CLEAR     79  63  57 SE6       30.00S
VERNON         CLEAR     82  61  48 SE7       30.00
ABILENE        CLEAR     80  61  52 SE13      30.02F
ABILENE-DYESS  CLEAR     80  62  54 SE10      30.01S
BRECKENRIDGE   CLEAR     82  56  42 SE9       29.99F
GRAHAM         CLEAR     79  61  53 SE5       29.98F
MINERAL WELLS  CLEAR     75  60  59 SE7       29.98F
STEPHENVILLE   CLEAR     77  56  49 SE3       30.04S
COMANCHE         N/A     74  60  61 S3        30.02F
BROWNWOOD      MOCLDY    77  57  50 SE5       30.01F
COLEMAN        CLEAR     77  59  53 SE5       30.03S
BRADY          CLEAR     75  59  57 E3        30.02S
$$

TXZ143>147-156>162-174-175-280800-
CENTRAL TEXAS

CITY           SKY/WX    TMP DP  RH WIND       PRES   REMARKS
WACO           CLEAR     76  64  66 SE7       29.99S
WACO-MCGREGOR  CLEAR     75  57  53 S5        30.00F
HILLSBORO      CLEAR     78  62  57 E8        29.99S
CORSICANA      PTCLDY    80  66  62 SE8       29.99F
MEXIA          CLEAR     75  67  74 SE5       29.98S
HEARNE           N/A     77  70  79 CALM      29.98S
CAMERON        CLEAR     79  71  76 CALM      29.98S
TEMPLE         CLEAR     77  61  57 SE3       29.99S
KILLEEN        CLEAR     77  61  57 S6        30.01S
KILLEEN-SKYLRK CLEAR     79  61  53 S6        30.00S
FORT HOOD      CLEAR     79  63  57 SE3       30.00F
GATESVILLE     CLEAR     75  59  57 SE3       30.02F
HAMILTON       CLEAR     77  57  50 SE8       30.02F
LAMPASAS       CLEAR     76  61  60 CALM      30.00F
$$

TXZ095>097-106>112-122>126-135>138-148>153-164>167-280800-
EAST TEXAS

CITY           SKY/WX    TMP DP  RH WIND       PRES   REMARKS
PARIS          CLEAR     73  63  68 E7        30.01S
SULPHUR SPRNGS CLEAR     73  65  76 SE5       30.01F
CLARKSVILLE    CLEAR     76  66  73 CALM      30.00F
MOUNT PLEASANT CLEAR     74  66  75 E3        30.01S
GILMER         CLEAR     73  66  78 CALM      30.01S
MINEOLA        CLEAR     70  66  88 CALM      30.00S
TYLER          CLEAR     77  65  66 SE5       29.99F
LONGVIEW       CLEAR     74  66  76 CALM      29.99S
MARSHALL       CLEAR     74  69  82 CALM      30.01F
ATHENS         PTCLDY    70  64  83 CALM      29.98S
PALESTINE      CLEAR     76  70  79 CALM      30.00S
JACKSONVILLE   CLEAR     78  69  73 S3        30.02S
HENDERSON      CLEAR     72  69  89 CALM      30.00S
NACOGDOCHES    CLEAR     73  68  83 CALM      30.00S
LUFKIN         PTCLDY    77  72  84 CALM      29.99S
$$

SUPPLEMENTAL OBSERVATIONS (CENTRAL)

CITY           SKY/WX    TMP DP  RH WIND       PRES   REMARKS
LAKE TEXOMA      N/A     73  66  78 E3          N/A
PAT MAYSE LAKE   N/A     75  66  73 E5          N/A
GREENVILLE       N/A     73  64  73 CALM        N/A
CEDAR HILL       N/A     79  59  50 SE5         N/A
LAKE LIMESTONE   N/A     75  68  78 SW1         N/A
MCGREGOR         N/A     77  63  61 S3          N/A
TEMPLE           N/A     75  63  64 CALM        N/A
$$

SUPPLEMENTAL OBSERVATIONS (WEST)

CITY           SKY/WX    TMP DP  RH WIND       PRES   REMARKS
MILLERS CREEK    N/A     81  59  47 SE5         N/A
GRANBURY         N/A     79  57  47 SE6         N/A
COMANCHE         N/A     75  59  57 S3          N/A
HAMBY            N/A     81  59  47 SE8         N/A
IVIE RESERVOIR   N/A     77  59  53 E6          N/A
COLORADO BEND    N/A     75  55  50 SE5         N/A
$$

SUPPLEMENTAL OBSERVATIONS (EAST)

CITY           SKY/WX    TMP DP  RH WIND       PRES   REMARKS
CLARKSVILLE      N/A     73  66  78 E1          N/A
TEXARKANA        N/A     66  64  94 CALM        N/A
LINDEN           N/A     70  66  88 CALM        N/A
CADDO LAKE       N/A     66  64  94 CALM        N/A
GILMER           N/A     72  64  78 CALM        N/A
HENDERSON        N/A     72  66  83 SW2         N/A
LUFKIN           N/A     73  70  88 MISG        N/A
S SABINE NF      N/A     73  70  88 CALM        N/A
$$

SUPPLEMENTAL OBSERVATIONS ARE A COLLECTION OF AUTOMATED INSTRUMENTS
THAT ARE MAINTAINED BY A VARIETY OF FEDERAL AND STATE AGENCIES.
CERTAIN ELEMENTS...SUCH AS HUMIDITY VALUES AND SUSTAINED WIND
SPEEDS...MAY BE APPROXIMATED.



USA.gov is the U.S. government's official web portal to all federal, state and local government web resources and services.